"Pseudo-MPEC" for P11OkaT

Created 2023 Nov 30 8:22:04 UT using Find_Orb

Click here for an explanation of pseudo-MPECs

 
 Astrometry: 
     P11OkaT* C2023 11 181Yj.K8;^Ol!.BM\uHpuM-.mZ;[P.MaA=Il/dP^VQGSHtK^oMTD!-F51
     P11OkaT  C2023 11 18Hv]00g+'jw6T'Oe2vrZJCrsqMrLC%NAstrometry?'1yku@v0sldF51
     P11OkaT  C2023 11 18A)2q!GAE?;pF3BilJbsredacted;5ad0[`fk3X03T9yK;m:@b0@OF51
     P11OkaT  C2023 11 18,dAVnkBXU#rAo+y%rSK%click3LLMFhereh7@=C*^S1RxSdSV6t%F51
     P11OkaT  C2023 11 18uN*m[#r`6xfxTforU?KS#c,4;_AY8xogWj;b7v?d7/bWM;2]Z]67F51
     P11OkaT KC2023 11 19!vp[GPNyy;WD0s5,8ywGUOWA2kX(YRexplanation.Ph0Zp/Y1@WH21
     P11OkaT KC2023 11 19u9m[QlYSbh\?/HdAJGUV/+x??n)RYI0Tc#6nIo!f7]_+JA/qv@[TH21

Station data:
(F51) Pan-STARRS 1, Haleakala  (N20.707234 W156.255910)  US/Hawaii.
   Observers J. Bulger, T. Lowe, A. Schultz, M. Willman. Measurers K.
   Chambers, S. Chastel, T. de Boer, L. Denneau, J. Fairlamb, H. Flewelling,
   M. Huber, C.-C. Lin, E. Magnier, Y. Ramanjooloo, R. Wainscoat, R. Weryk.
   1.8-m Ritchey-Chrétien + CCD.
(H21) Astronomical Research Observatory, Westfield  (N39.483054 W87.968270)
   US/Illinois.  Observer R. Holmes. Measurers S. Foglia, L. Buzzi, T.
   Linder, R. Holmes. 0.76-m f/3.0 astrograph + CCD0.81-m f/4.0 astrograph +
   CCD0.61-m f/4.5 astrograph + CCD0.40-m f/5.32 astrograph + CCD.

Orbital elements:  P11OkaT
   Perihelion 2024 Mar 6.24508 +/- 48.3 TT =  5:52:54 (JD 2460375.74508)
Epoch 2023 Nov 19.0 TT = JDT 2460267.5   Earth MOID: 0.2534   Ju: 0.9731
M 335.61033225 +/- 10               (J2000 ecliptic)             AutoNEOCP
n   0.22531895 +/- 0.0397           Peri.  344.43107 +/- 39
a   2.67467421 +/- 0.314            Node   160.24000 +/- 9
e   0.5383689 +/- 0.0694            Incl.   16.94485 +/- 1.0
P   4.37                   H 19.92  G  0.15   U 10.6  SR
q 1.23471261 +/- 0.14    Q 4.11463581 +/- 0.641
From 7 observations 2023 Nov. 18-19 (19.5 hr); mean residual 0".21
Residuals in arcseconds: 
231118 F51  .18+  .17+    231118 F51  .11-  .39-    231119 H21  .25+  .25+    
231118 F51  .05+  .24+    231118 F51  .16-  .23-    
231118 F51  .01-  .12+    231119 H21  .02+  .34+    

Ephemerides (geocentric):
Date (UTC) HH   RA             Dec           delta  r     elong  mag " sig PA
---- --------  ------------   ------------  ------ ------ -----  --- --------
2023 11 30 08  05 41 26.680   -15 51 12.66  .74480 1.6180 137.9 21.5  527   1
2023 11 30 09  05 41 25.806   -15 51 53.41  .74448 1.6177 137.9 21.5  531   1
2023 11 30 10  05 41 24.928   -15 52 34.13  .74417 1.6175 137.9 21.5  534   1
2023 11 30 11  05 41 24.047   -15 53 14.81  .74385 1.6172 137.9 21.4  538   1
2023 11 30 12  05 41 23.163   -15 53 55.47  .74354 1.6169 137.9 21.4  542   1
2023 11 30 13  05 41 22.275   -15 54 36.09  .74322 1.6167 137.9 21.4  546   1
2023 11 30 14  05 41 21.384   -15 55 16.68  .74291 1.6164 138.0 21.4  550   1
2023 11 30 15  05 41 20.490   -15 55 57.24  .74259 1.6161 138.0 21.4  553   1
2023 11 30 16  05 41 19.593   -15 56 37.76  .74228 1.6159 138.0 21.4  557   1
2023 11 30 17  05 41 18.692   -15 57 18.25  .74196 1.6156 138.0 21.4  561   1
2023 11 30 18  05 41 17.788   -15 57 58.71  .74165 1.6153 138.0 21.4  565   1
2023 11 30 19  05 41 16.881   -15 58 39.13  .74134 1.6151 138.0 21.4  569   1
2023 11 30 20  05 41 15.970   -15 59 19.52  .74102 1.6148 138.0 21.4  573   1
2023 11 30 21  05 41 15.057   -15 59 59.88  .74071 1.6146 138.0 21.4  577   1
2023 11 30 22  05 41 14.139   -16 00 40.20  .74040 1.6143 138.0 21.4  581   1
2023 11 30 23  05 41 13.219   -16 01 20.50  .74009 1.6140 138.0 21.4  584   1
2023 12 01 00  05 41 12.295   -16 02 00.75  .73977 1.6138 138.0 21.4  588   1
2023 12 01 01  05 41 11.368   -16 02 40.98  .73946 1.6135 138.0 21.4  592   1
2023 12 01 02  05 41 10.438   -16 03 21.17  .73915 1.6132 138.0 21.4  596   0
2023 12 01 03  05 41 09.504   -16 04 01.32  .73884 1.6130 138.0 21.4  600   0
2023 12 01 04  05 41 08.568   -16 04 41.44  .73853 1.6127 138.0 21.4  604   0
2023 12 01 05  05 41 07.628   -16 05 21.53  .73821 1.6124 138.0 21.4  608   0
2023 12 01 06  05 41 06.684   -16 06 01.58  .73790 1.6122 138.0 21.4  612   0
2023 12 01 07  05 41 05.738   -16 06 41.60  .73759 1.6119 138.0 21.4  616   0
2023 12 01 08  05 41 04.788   -16 07 21.59  .73728 1.6116 138.0 21.4  620   0
2023 12 01 09  05 41 03.835   -16 08 01.54  .73697 1.6114 138.0 21.4  624   0
2023 12 01 10  05 41 02.878   -16 08 41.45  .73666 1.6111 138.1 21.4  628   0
2023 12 01 11  05 41 01.919   -16 09 21.33  .73635 1.6109 138.1 21.4  632   0
2023 12 01 12  05 41 00.956   -16 10 01.18  .73604 1.6106 138.1 21.4  636   0
2023 12 01 13  05 40 59.990   -16 10 40.99  .73573 1.6103 138.1 21.4  641   0
2023 12 01 14  05 40 59.020   -16 11 20.77  .73542 1.6101 138.1 21.4  645   0
2023 12 01 15  05 40 58.047   -16 12 00.51  .73512 1.6098 138.1 21.4  649   0
2023 12 01 16  05 40 57.072   -16 12 40.21  .73481 1.6095 138.1 21.4  653   0
2023 12 01 17  05 40 56.092   -16 13 19.88  .73450 1.6093 138.1 21.4  657   0
2023 12 01 18  05 40 55.110   -16 13 59.52  .73419 1.6090 138.1 21.4  661   0
2023 12 01 19  05 40 54.124   -16 14 39.12  .73388 1.6087 138.1 21.4  665   0
2023 12 01 20  05 40 53.135   -16 15 18.68  .73358 1.6085 138.1 21.4  670   0
2023 12 01 21  05 40 52.143   -16 15 58.21  .73327 1.6082 138.1 21.4  674   0
2023 12 01 22  05 40 51.148   -16 16 37.70  .73296 1.6079 138.1 21.4  678   0
2023 12 01 23  05 40 50.149   -16 17 17.16  .73265 1.6077 138.1 21.4  682   0
2023 12 02 00  05 40 49.148   -16 17 56.58  .73235 1.6074 138.1 21.4  686   0
2023 12 02 01  05 40 48.143   -16 18 35.96  .73204 1.6072 138.1 21.4  691   0
2023 12 02 02  05 40 47.134   -16 19 15.31  .73174 1.6069 138.1 21.4  695   0
2023 12 02 03  05 40 46.123   -16 19 54.62  .73143 1.6066 138.1 21.4  699   0
2023 12 02 04  05 40 45.108   -16 20 33.89  .73112 1.6064 138.1 21.4  703   0
2023 12 02 05  05 40 44.090   -16 21 13.13  .73082 1.6061 138.1 21.4  708   0
2023 12 02 06  05 40 43.069   -16 21 52.33  .73051 1.6058 138.1 21.4  712   0
2023 12 02 07  05 40 42.045   -16 22 31.50  .73021 1.6056 138.1 21.4  716   0